Location: Grasslands National Park East Block
(49.0708°N, 106.5295°W)
Time: 02:28:57
(UTC-06:00)

Daily predictions for brighter satellites

Satellite Brightness Start Highest point End
(mag) Time Altitude Azimuth Time Altitude Azimuth Time Altitude Azimuth
Cosmos 1953 4.5 00:08:21 21° NE 00:08:21 21° NE 00:09:57 10° NNE
In-Cosmos 22 4.3 00:12:12 10° NNW 00:17:05 72° N 00:17:05 72° N
Cosmos 2219 Rocket 4.0 00:21:35 20° ENE 00:21:35 20° ENE 00:23:56 10° NE
Meteor 2-12 Rocket 4.4 00:20:27 79° ENE 00:20:27 79° ENE 00:26:20 10° NNE
Meteor 1-24 Rocket 4.4 00:14:38 10° NNW 00:20:26 49° W 00:20:33 49° W
Cosmos 921 Rocket 4.3 00:17:06 10° NNW 00:20:01 39° N 00:20:01 39° N
Cosmos 2263 Rocket 3.4 00:17:26 10° NW 00:21:38 30° W 00:21:38 30° W
Cosmos 2322 3.9 00:29:05 68° NNE 00:29:05 68° NNE 00:34:03 10° NNE
Cosmos 2322 Rocket 3.3 00:26:54 30° W 00:28:45 38° NW 00:34:01 10° NNE
Cosmos 2333 Rocket 4.0 00:33:47 20° ENE 00:33:47 20° ENE 00:36:27 10° NE
Cosmos 2237 Rocket 4.1 00:37:53 19° ENE 00:37:53 19° ENE 00:40:21 10° NE
Cosmos 2034 Rocket 4.3 00:40:39 56° W 00:40:57 56° WNW 00:47:03 10° N
Terra 4.4 00:41:24 11° W 00:41:24 11° W 00:42:51 10° WNW
Cosmos 1680 Rocket 4.4 00:46:33 43° NE 00:46:33 43° NE 00:50:16 10° NNE
COSMOS 2428 3.2 00:49:06 52° NE 00:49:06 52° NE 00:53:29 10° NNE
CZ-4B R/B 4.2 00:53:40 19° NNW 00:53:40 19° NNW 00:54:46 10° NNW
Cosmos 1092 Rocket 4.1 00:48:20 10° NNW 00:54:25 65° W 00:54:25 65° W
Cosmos 1818 4.4 00:53:02 10° NNW 00:58:18 44° NE 00:58:44 43° NE
Cosmos 1634 Rocket 4.0 00:59:36 81° NE 00:59:36 81° NE 01:05:40 10° N
Cosmos 2278 Rocket 2.4 01:00:47 10° NNW 01:05:46 66° N 01:05:46 66° N
Cosmos 2237 4.4 01:07:30 67° N 01:07:30 67° N 01:12:31 10° NNE
Lacrosse 4 Rocket 3.1 01:17:21 35° N 01:17:21 35° N 01:20:09 10° NNE
Cosmos 2056 Rocket 4.1 01:11:17 10° NNW 01:15:25 56° NNW 01:15:25 56° NNW
Cosmos 2279 Rocket 4.0 01:18:24 69° ENE 01:18:24 69° ENE 01:24:15 10° NNE
SL-16 R/B 4.3 01:20:59 12° W 01:24:33 21° NW 01:28:47 10° N
Cosmos 1844 Rocket 4.1 01:30:39 10° NW 01:33:48 27° WNW 01:33:48 27° WNW
Cosmos 2266 Rocket 4.2 01:29:57 10° N 01:36:16 61° ENE 01:36:41 59° E
ATLAS CENTAUR R/B 4.1 01:35:25 10° NNW 01:38:46 19° NNE 01:41:57 10° ENE
CZ-2C R/B 2.9 01:33:30 10° NNE 01:38:26 68° NNW 01:38:26 68° NNW
Cosmos 1633 Rocket 4.5 01:35:51 10° N 01:38:50 37° NNE 01:38:50 37° NNE
Cosmos 2360 Rocket 3.6 01:40:33 27° WNW 01:41:51 30° NW 01:46:50 10° NNE
ATLAS 3B R/B 3.0 01:41:57 59° SE 01:42:03 59° ESE 01:49:18 10° NE
CZ-2C R/B 3.9 01:45:07 40° NW 01:45:07 40° NW 01:48:27 10° NNW
H-2A R/B 4.4 01:44:48 10° N 01:47:07 25° NNW 01:47:07 25° NNW
Exosat Rocket 4.2 01:44:40 10° NNW 01:49:36 52° ENE 01:50:02 50° ENE
Cosmos 2369 Rocket 4.5 01:46:00 10° N 01:50:12 21° NE 01:54:22 10° E
Cosmos 2221 3.8 01:52:17 39° N 01:52:17 39° N 01:55:05 10° N
Sich 1 4.3 01:48:01 10° N 01:50:55 40° N 01:50:55 40° N
COSMOS 2455 2.8 01:58:19 78° ENE 01:58:19 78° ENE 02:04:00 10° NE
Cosmos 2219 Rocket 2.4 02:03:18 62° NW 02:03:18 62° NW 02:08:38 10° NNE
SL-16 R/B 2.6 02:14:39 54° E 02:14:39 54° E 02:19:52 10° NE
Timation 1 Rocket 4.2 02:09:36 10° NNW 02:15:32 87° N 02:15:32 87° N
Cosmos 2333 Rocket 2.3 02:15:47 66° NW 02:15:47 66° NW 02:21:32 10° NNE
Cosmos 1452 Rocket 4.1 02:11:26 10° NNW 02:15:25 49° NW 02:15:25 49° NW
Cosmos 1607 4.4 02:16:53 45° ESE 02:16:53 45° ESE 02:22:34 10° NE
Cosmos 2297 4.2 02:11:30 10° NNW 02:15:57 50° WNW 02:15:57 50° WNW
Cosmos 1626 4.2 02:15:17 10° N 02:17:07 27° N 02:17:07 27° N
Cosmos 2237 Rocket 2.3 02:19:43 70° NW 02:19:43 70° NW 02:25:20 10° NNE
BREEZE-M DEB (TANK) 4.0 02:21:55 35° E 02:21:55 35° E 02:24:32 10° ENE
Cosmos 1980 3.9 02:24:04 61° WNW 02:24:06 61° WNW 02:29:43 10° NNE
NOSS 0 Rocket 4.0 02:24:19 60° W 02:24:50 62° NW 02:30:59 10° NNE
Cosmos 1151 Rocket 4.5 02:26:01 31° E 02:26:01 31° E 02:29:31 10° NNE
COSMOS 2428 4.2 02:31:05 24° WNW 02:32:37 27° NW 02:37:25 10° NNE
USA 238 DEB 3.8 02:32:15 56° SSE 02:33:07 60° ESE 02:40:02 10° NE
USA 238 3.8 02:32:21 56° SSE 02:33:13 59° ESE 02:40:08 10° NE
Aureole 2 Rocket 3.9 02:37:45 43° NE 02:37:45 43° NE 02:40:45 10° NNE
BREEZE-M DEB (TANK) 3.9 02:22:06 10° WNW 02:37:02 74° SSW 02:37:30 70° SSE
Cosmos 1908 4.5 02:42:02 41° NE 02:42:02 41° NE 02:44:47 10° NNE
Cosmos 1328 Rocket 4.1 02:42:40 54° N 02:42:40 54° N 02:46:04 10° N
BREEZE-M DEB (TANK) 4.3 02:43:46 44° SSE 02:44:33 46° SSE 02:48:49 10° ENE
CZ-4C R/B 2.4 02:46:31 54° SE 02:46:42 54° ESE 02:52:38 10° NE
SL-08 R/B 3.3 02:49:50 74° N 02:49:50 74° N 02:54:09 10° NNW
NOSS 3-2 (A) 4.4 02:48:27 32° SE 02:49:34 34° ESE 02:55:26 10° NE
Cosmos 2228 Rocket 3.7 02:50:26 53° NNW 02:50:26 53° NNW 02:54:14 10° N
Cosmos 2278 Rocket 4.2 02:46:02 10° NW 02:47:35 15° WNW 02:47:35 15° WNW
NOSS 3-3 (A) 4.4 02:47:58 10° NW 02:55:18 83° NE 03:03:11 10° SE
NOSS 3-3 (C) 4.4 02:48:04 10° NW 02:55:24 83° NE 03:03:17 10° SE
Lacrosse 4 Rocket 4.1 02:53:41 11° NW 02:55:28 14° NNW 02:57:50 10° N
CBERS-1 4.2 02:51:03 10° NNE 02:56:07 59° ESE 02:56:39 56° SE
Cosmos 1603 4.2 02:56:00 43° SE 02:56:54 47° ESE 03:02:23 10° NE
Cosmos 1932 4.5 03:02:00 56° WSW 03:03:17 71° NW 03:09:39 10° NE
NOSS 3-2 (C) 4.4 03:04:09 31° SE 03:05:48 36° ESE 03:11:45 10° NE
Cosmos 1515 Rocket 3.9 03:06:48 55° NNW 03:06:48 55° NNW 03:10:29 10° N
IRS-1C 4.4 03:01:24 10° NNE 03:06:43 60° ESE 03:07:49 49° SSE
Meteor 2-3 Rocket 4.5 03:01:34 10° N 03:07:11 51° ENE 03:11:03 20° SE
S3M 4.1 03:07:51 46° SSE 03:09:48 72° E 03:16:06 10° NNE
Cosmos 1869 Rocket 4.1 03:05:27 10° N 03:09:50 57° ENE 03:10:32 50° ESE
AQUA 3.8 03:05:08 10° NNE 03:09:55 75° ESE 03:10:15 71° SE
SL-16 R/B 3.0 03:05:49 17° SE 03:10:37 59° ENE 03:16:42 10° N
Cosmos 1356 Rocket 4.1 03:07:01 10° N 03:10:59 47° ENE 03:11:31 43° E
Abrixas rocket 4.4 03:17:14 22° E 03:17:14 22° E 03:18:35 10° E
ATLAS CENTAUR R/B 1.6 03:14:10 10° NW 03:18:42 71° NE 03:20:00 43° ESE
Coronas F rocket 4.0 03:20:09 10° N 03:21:24 21° NNE 03:21:24 21° NNE
IRS-P3 4.1 03:18:29 10° N 03:23:47 65° WNW 03:24:38 56° WSW
Cosmos 839 Rocket 4.4 03:15:04 10° NW 03:23:53 84° SW 03:30:47 10° SSE
CZ-2D R/B 3.3 03:19:08 10° NNE 03:24:01 37° E 03:26:44 22° SSE
Cosmos 1726 2.7 03:24:53 51° E 03:24:53 51° E 03:28:32 10° NNE
Cosmos 1943 4.3 03:25:33 26° SSE 03:27:53 37° ESE 03:33:04 10° NE
Cosmos 1300 2.8 03:29:21 70° E 03:29:21 70° E 03:33:08 10° NNE
Cosmos 1745 Rocket 3.9 03:23:13 10° NNW 03:29:35 77° W 03:32:02 40° S
Cosmos 1553 Rocket 3.9 03:28:02 47° SSW 03:29:59 84° W 03:36:09 10° N
UNK 4.0 03:30:56 33° SSE 03:32:56 69° ENE 03:37:32 10° N
ATLAS 3B R/B 3.5 03:29:11 27° W 03:33:05 48° NW 03:40:08 10° NE
Cosmos 2369 Rocket 2.1 03:29:25 10° NNW 03:35:04 86° ENE 03:40:42 10° SSE
Cosmos 1048 Rocket 4.1 03:35:33 51° WSW 03:36:41 65° WNW 03:42:03 10° NNE
Cosmos 1302 Rocket 4.4 03:34:14 10° NNW 03:39:29 62° ENE 03:44:40 10° SE
NPP 3.9 03:34:54 10° N 03:40:10 56° WNW 03:41:26 45° WSW
Spot 4 Rocket 4.0 03:36:27 10° NNE 03:41:39 85° ESE 03:43:21 44° S
IRS-1D 3.9 03:36:49 10° NNE 03:41:58 61° ESE 03:44:23 31° S
Cosmos 1455 4.2 03:40:22 15° SE 03:42:39 25° E 03:45:54 10° NNE
COSMOS 2455 4.3 03:41:27 19° WNW 03:44:34 28° NW 03:49:44 10° NNE
ADEOS 3.5 03:41:54 10° NNE 03:47:09 81° WNW 03:48:53 44° SSW
Cosmos 2219 Rocket 4.3 03:45:01 11° WNW 03:48:11 17° NW 03:51:44 10° N
Cosmos 1733 Rocket 4.2 03:44:52 10° N 03:49:03 42° ENE 03:53:14 10° SSE
Cosmos 1271 Rocket 2.7 03:49:06 66° WSW 03:49:22 69° WNW 03:53:25 10° N
Cosmos 1867 4.0 03:49:31 36° W 03:51:25 52° NW 03:56:48 10° NNE
ARIANE 5 R/B 2.6 03:48:20 10° NNE 03:53:37 80° ESE 03:56:01 33° S
Cosmos 1340 Rocket 3.7 03:51:20 10° NNW 03:54:20 34° WNW 03:54:20 34° WNW
Cosmos 1331 Rocket 3.9 03:49:57 10° NNW 03:55:10 64° WSW 03:57:49 29° S
Cosmos 1707 Rocket 3.5 03:54:15 49° SSW 03:55:27 84° W 03:59:59 10° N
Meteor 1-4 Rocket 3.2 03:57:08 39° NW 03:57:08 39° NW 04:00:06 10° N
SL-16 R/B 3.3 03:56:32 24° W 03:58:44 32° NW 04:03:50 10° NNE
Cosmos 1184 Rocket 4.4 03:56:13 10° N 03:59:26 36° ENE 04:02:37 10° SE
Cosmos 2333 Rocket 4.2 03:57:47 11° WNW 04:01:11 18° NW 04:05:03 10° N
Cosmos 1943 Rocket 2.6 03:55:58 10° NNW 04:01:39 65° ENE 04:07:16 10° SE
Resurs 1-4 Rocket 2.2 03:56:24 10° NNE 04:01:42 76° ESE 04:04:41 27° S
Cosmos 1151 Rocket 4.1 04:02:53 28° WNW 04:03:11 29° WNW 04:07:02 10° N
Cosmos 1607 4.5 04:01:00 27° W 04:04:00 47° NW 04:09:57 10° NNE
Cosmos 2237 Rocket 4.2 04:01:32 12° WNW 04:04:46 18° NW 04:08:39 10° N
ERBS 2.6 04:04:54 52° WNW 04:05:25 60° NNW 04:08:55 10° NE
Cosmos 2263 4.1 04:01:03 10° NNW 04:06:52 77° WSW 04:12:38 10° SSE
ERS-2 2.3 04:06:03 10° N 04:09:44 59° WNW 04:10:23 49° WSW
SeaSat 1 2.4 04:08:21 10° SSE 04:13:18 89° SW 04:18:17 10° NNW
Okean O Rocket 3.0 04:10:57 10° NNE 04:15:06 36° E 04:19:12 10° SSE
USA 234 3.3 04:09:22 10° ENE 04:15:58 74° SE 04:19:56 26° SW
Cosmos 1825 4.2 04:13:05 10° N 04:16:29 30° ENE 04:19:51 10° SE
Cosmos 883 Rocket 4.4 04:14:35 25° SSW 04:18:18 71° WNW 04:24:27 10° N
Meteor 1-27 4.2 04:15:53 29° SSW 04:18:41 63° WNW 04:24:14 10° N
Cosmos 158 Rocket 4.3 04:18:49 31° WSW 04:20:51 47° WNW 04:25:40 10° NNE
USA 238 DEB 4.4 04:19:41 20° W 04:24:22 46° NW 04:31:09 10° NE
USA 238 4.4 04:19:48 20° W 04:24:28 46° NW 04:31:14 10° NE
UNKNOWN OBJECT B 2.6 04:21:36 10° NNE 04:25:20 89° E 04:27:11 28° SSW
CZ-2D R/B 3.8 04:21:33 10° NNE 04:26:00 70° ESE 04:29:17 17° S
EO 1 Del DPAF 3.4 04:26:16 30° SSW 04:27:53 50° W 04:31:42 10° NNW
Thor Agena Rocket 4.4 04:23:09 10° SE 04:28:08 52° ENE 04:33:13 10° N
Cosmos 2315 Rocket 4.0 04:24:16 17° SSW 04:29:14 81° W 04:35:34 10° N
Sich 1 Rocket 4.0 04:25:31 10° N 04:29:53 62° ENE 04:34:15 10° SSE
Cosmos 2251 Rocket 3.7 04:29:17 26° SW 04:32:06 58° WNW 04:37:18 10° NNE
Cosmos 2292 Rocket 3.0 04:29:58 10° NNW 04:32:48 41° W 04:33:08 40° WSW
Iridium 2 4.0 04:30:18 10° NNW 04:33:58 46° W 04:35:32 28° SW
Cosmos 1869 3.5 04:31:14 16° S 04:34:24 71° E 04:38:22 10° NNE
Cosmos 1656 Rocket 4.3 04:29:37 10° NNW 04:35:01 58° ENE 04:40:20 10° SE
CZ-4C R/B 3.2 04:31:42 19° W 04:35:27 41° NNW 04:41:30 10° NE
ATLAS 5 CENTAUR R/B 2.5 04:33:04 18° SSW 04:36:33 52° ESE 04:41:41 10° NE
SL-27 R/B 4.3 04:34:28 10° SSE 04:37:42 29° ESE 04:40:54 10° NE
NOSS 3-2 (A) 3.8 04:35:51 22° WSW 04:40:03 62° NW 04:46:55 10° NE
Cosmos 1892 3.4 04:38:57 10° NNW 04:42:28 34° W 04:43:54 25° SW
MOS 1-B 4.3 04:37:06 10° NNE 04:42:54 75° WNW 04:47:53 14° SSW
CZ-2C R/B 3.6 04:45:52 10° S 04:50:17 70° WSW 04:54:44 10° NNW
Abrixas rocket 2.1 04:50:10 21° W 04:52:15 78° S 04:55:36 10° E
Cosmos 2242 Rocket 4.2 04:51:33 20° SW 04:54:18 39° WNW 04:58:38 10° N
SL-16 R/B 3.4 04:50:55 16° SW 04:54:38 28° W 04:59:54 10° NW
Cosmos 724 4.3 04:51:26 17° SW 04:56:04 80° NW 05:02:11 10° NE
ARGOS Delta rocket 3.6 04:51:47 10° N 04:56:14 72° WNW 05:00:30 11° SSW
NOSS 3-2 (C) 3.8 04:51:36 18° WSW 04:56:23 61° NW 05:03:15 10° NE
Meteor 2-10 4.4 04:52:16 16° SW 04:56:30 49° WNW 05:01:44 10° N
ATLAS CENTAUR R/B 3.1 04:54:25 10° WNW 04:56:06 15° W 04:56:06 15° W
CENTAUR R/B 3.2 04:53:00 10° SSW 04:59:01 55° ESE 05:05:49 10° NE
Cosmos 1726 4.1 04:59:34 13° W 05:00:35 15° WNW 05:02:45 10° NNW
CZ-2D R/B 2.8 04:59:16 10° N 05:04:06 37° WNW 05:08:03 14° SW
Cosmos 1862 Rocket 3.6 05:00:16 12° SSW 05:04:16 58° WNW 05:08:39 10° N
MOZ.5/SAFIR/RUBIN 5/SL-8 4.0 05:02:56 10° S 05:07:23 46° W 05:11:54 10° NNW
COSMOS 2406 3.9 05:03:08 10° S 05:08:45 57° ESE 05:14:24 10° NE
Okean 2 Rocket 3.7 05:04:31 10° N 05:09:00 64° ENE 05:13:29 10° SSE
Cosmos 1943 3.8 05:07:23 14° WSW 05:11:54 43° NW 05:17:17 10° NNE
PSLV R/B 3.8 05:09:27 10° N 05:13:08 55° WNW 05:16:50 10° SSW
CZ-4B DEB 4.2 05:12:15 10° NNE 05:17:46 87° WNW 05:23:14 10° SSW
Cosmos 1455 3.3 05:15:25 13° SW 05:18:18 29° WNW 05:21:45 10° N
Cosmos 2369 Rocket 3.6 05:14:54 10° WNW 05:18:20 17° W 05:21:45 10° SW
Nadezhda 1 Rocket 4.1 05:13:14 10° S 05:19:30 88° E 05:25:55 10° N
CZ-4B R/B 3.1 05:15:45 10° NNE 05:21:05 77° WNW 05:26:21 10° SSW
Okean 1-7 3.8 05:16:55 10° S 05:21:08 56° E 05:25:24 10° NNE
Cosmos 389 Rocket 2.9 05:19:58 10° SSW 05:23:17 42° WNW 05:26:41 10° N
ATLAS 3B R/B 4.4 05:19:29 10° WNW 05:25:36 26° N 05:31:27 10° NE
Cosmos 1733 Rocket 4.3 05:23:15 10° NW 05:26:36 22° W 05:29:57 10° SW
ARIANE 5 R/B 4.2 05:28:34 10° NNW 05:32:08 19° WNW 05:35:42 10° W
Cosmos 1782 Rocket 3.6 05:29:43 10° NNW 05:34:02 60° W 05:38:17 10° S
Cosmos 2074 Rocket 4.4 05:32:41 10° NNW 05:38:24 40° W 05:44:08 10° SSW
Cosmos 2154 Rocket 4.0 05:33:43 10° NNW 05:40:02 75° W 05:46:21 10° S
Resurs 1-4 Rocket 3.6 05:37:17 10° NNW 05:41:00 20° WNW 05:44:43 10° WSW
ERBS 4.3 05:39:51 10° WNW 05:42:47 24° N 05:45:44 10° NE
Meteor 1-31 Rocket 3.9 05:39:53 10° NNE 05:43:36 46° E 05:47:16 10° S
Cosmos 1943 Rocket 3.2 05:40:32 10° NW 05:44:56 24° WSW 05:49:17 10° SSW
